Location: Sevilla
(37.3933°N, 5.9839°W)
Time: 02:36:18
(UTC+02:00)

Tiros 1 despin weight - Visible Passes

Search period start: 16 June 2024 00:00
Search period end: 26 June 2024 00:00
Orbit: 577 x 621 km, 48.2° (Epoch: 15 June)

Date Brightness Start Highest point End Pass type
(mag) Time Alt. Az. Time Alt. Az. Time Alt. Az.
16 Jun ? 22:22:26 10° NW 22:26:55 68° NNE 22:31:20 10° ESE visible
17 Jun ? 00:04:20 10° W 00:07:42 21° SW 00:08:02 21° SW visible
17 Jun ? 22:32:43 10° WNW 22:37:12 72° SW 22:41:09 13° SE visible
18 Jun ? 00:16:29 10° WSW 00:17:40 11° SW 00:17:48 11° SW visible
18 Jun ? 22:43:10 10° WNW 22:47:22 39° SW 22:50:58 13° SSE visible
19 Jun ? 22:53:58 10° W 22:57:25 22° SW 23:00:49 10° S visible
20 Jun ? 23:05:55 10° WSW 23:07:22 11° SW 23:08:49 10° SSW visible
